Location: Ferchesar
(52.6477°N, 12.4298°E)
Time: 17:20:52
(UTC+01:00)

Tiros 1 - Pass Details

Date: 04 December 2021
Orbit: 629 x 664 km, 48.4° (Epoch: 22 January)

Event Time Altitude Azimuth Distance (km) Brightness Sun altitude
Rises 23:11:40 0° 275° (W) 2,950 - -58.3°
Reaches altitude 10° 23:14:10 10° 266° (W) 2,045 - -58.4°
Maximum altitude 23:18:22 33° 203° (SSW) 1,095 - -58.6°
Drops below altitude 10° 23:22:36 10° 140° (SE) 2,059 - -58.8°
Sets 23:25:07 0° 130° (SE) 2,973 - -59.0°
